Regional Weather Roundup
Issued by NWS Sterling, VA

Home | Current Version | Previous Version | Graphics & Text | Print | Product List | Glossary On
Versions: 1 2 3 4 5 6 7 8 9 10 11 12 13 14 15 16 17 18 19 20 21 22 23 24 25 26 27
000
ASUS41 KLWX 032210
RWRLWX

REGIONAL WEATHER ROUNDUP
NATIONAL WEATHER SERVICE BALTIMORE MD/WASHINGTON DC
500 PM EST SAT DEC 03 2016

Note: "FAIR" indicates few or no clouds below 12,000 feet
with no significant weather and/or obstructions to visibility.
 TC=TEMPERATURE CELSIUS

 * =Non NWS site. Station does not report precipitation (e.g. rain,
    snow, etc.), thunder, or fog.

DCZ001-MDZ009-015-VAZ040>042-051-053>054-032300-
WASHINGTON METRO

CITY           SKY/WX    TMP DP  RH WIND       PRES   REMARKS
WASHINGTON NAT MOCLDY    46  29  51 NW18G24   30.23F
DULLES         MOCLDY    42  28  57 NW10      30.25S
ANDREWS AFB    PTCLDY    44  28  52 NW15      30.21
FT BELVOIR     PTCLDY    46  28  49 NW13      30.24
QUANTICO       PTCLDY    47  27  45 N12G17    30.26R
COLLEGE PARK*  PTCLDY    43  28  56 NW7G16    30.22F
LEESBURG*      MOCLDY    43  32  65 NW20      30.26R
MANASSAS*      CLEAR     43  28  56 N10G17    30.25S
GAITHERSBURG*  MOCLDY    41  25  52 W14       30.26S

$$

MDZ006>007-011-014-032300-
BALTIMORE METRO

CITY           SKY/WX    TMP DP  RH WIND       PRES   REMARKS
BWI AIRPORT    MOCLDY    44  30  57 W8        30.20F
MD SCIENCE CTR   N/A     47  28  47 MISG      30.20F
MARTIN STATE   PTCLDY    46  34  61 W8        30.21S
ANNAPOLIS      PTCLDY    48  30  49 NW9       30.20F
FORT MEADE*    PTCLDY    43  30  61 W5G16     30.23F

$$

MDZ012-015-019>023-032300-
MARYLAND EASTERN SHORE

CITY           SKY/WX    TMP DP  RH WIND       PRES   REMARKS
OCEAN CITY     CLEAR     46  30  53 NW9       30.17R
SALISBURY      CLEAR     46  30  53 NW9       30.18S
BAY BRIDGE AP* CLEAR     46  30  53 NW14G22   30.20F
CAMBRIDGE*     CLEAR     45  32  61 NW9G20    30.19F
EASTON*        PTCLDY    46  30  53 NW12      30.22F

$$

MDZ017>025-032300-
SOUTHERN MARYLAND

CITY           SKY/WX    TMP DP  RH WIND       PRES   REMARKS
PATUXENT RIVER PTCLDY    46  29  51 NW16G26   30.21S
ST INIGOES     PTCLDY    47  30  51 NW9       30.22R
LEONARDTOWN*   PTCLDY    45  30  57 NW5       30.23S

$$

MDZ003>005-032300-
NORTH CENTRAL MARYLAND

CITY           SKY/WX    TMP DP  RH WIND       PRES   REMARKS
FREDERICK*     MOCLDY    43  30  61 NW14G21   30.26F
HAGERSTOWN APT CLOUDY    42  28  57 W9        30.23F
WESTMINSTER*   CLOUDY    43  28  56 W9G16     30.19F

$$

MDZ501>502-032300-
WESTERN MARYLAND

CITY           SKY/WX    TMP DP  RH WIND       PRES   REMARKS
OAKLAND*       CLOUDY    27  27 100 W9        30.21R WCI  17
CUMBERLAND*    NOT AVBL

$$

VAZ025>031-032300-
SHENANDOAH VALLEY

CITY           SKY/WX    TMP DP  RH WIND       PRES   REMARKS
WINCHESTER*    CLOUDY    37  27  65 NW7       30.27R
FRONT ROYAL*   FAIR      39  28  65 NW6       30.25R
LURAY*         FAIR      41  32  70 N6        30.24R
NEW MARKET*    FAIR      40  27  59 N5        30.23S
STAUNTON*      CLOUDY    42  29  60 N5        30.23F
WAYNESBORO*    FAIR      41  28  57 SW5       30.21F

$$

WVZ021-048>050-054>055-032300-
EASTERN WEST VIRGINIA PANHANDLE

CITY           SKY/WX    TMP DP  RH WIND       PRES   REMARKS
MARTINSBURG    CLOUDY    41  27  57 W13G21    30.26S
PETERSBURG*    CLOUDY    39  29  65 N3        30.28S

$$

VAZ036>039-050-032300-
CENTRAL FOOTHILLS

CITY           SKY/WX    TMP DP  RH WIND       PRES   REMARKS
CHARLOTTESVILL CLOUDY    48  29  47 CALM      30.21S
CULPEPER*      PTCLDY    45  30  56 N10       30.25R
ORANGE*          N/A     46  32  57 CALM      30.24S
GORDONSVILLE*  FAIR      46  32  59 CALM      30.21F
WARRENTON*     FAIR      44  25  46 N14       30.23S

$$

VAZ055>057-032300-
NORTH AND CENTRAL PIEDMONT

CITY           SKY/WX    TMP DP  RH WIND       PRES   REMARKS
FREDERICKSBRG* CLOUDY    47  32  54 N7        30.23R
STAFFORD*      PTCLDY    44  29  55 N3        30.28R

$$

NCZ024-NYZ072-PAZ021-071-VAZ022-071-032300-
OTHER REGIONAL OBSERVATIONS

CITY           SKY/WX    TMP DP  RH WIND       PRES   REMARKS
NEW YORK CITY  MOCLDY    45  26  47 NW10G20   30.11R
PHILADELPHIA   CLOUDY    48  31  51 NW12      30.16R
PITTSBURGH     CLOUDY    38  29  70 W6        30.28S
ROANOKE        CLOUDY    41  27  57 NW8       30.26F
RALEIGH        CLOUDY    49  27  42 N5        30.24S

$$

ANZ530>537-032300-
MARINE OBSERVATIONS

STATION/POSITION TIME  TEMP    WIND        PRES
                       AIR SEA DIR/SP/G
                 (UTC) (F)     (DEG/KT/KT) (MB)
THOMAS PT LIGHT  2200   46 49  300/ 13/ 16   N/A
BALT KEY BRIDGE  2136   47     280/ 17/ 20 1022.5F
COVE POINT       2136   46     320/ 15/ 19 1023.4F
LEWISETTA        2136   47 50  310/ 11/ 13 1023.1R
SOLOMONS ISLAND  2136   47 51  320/ 15/ 23   N/A
PINEY POINT      2148          340/ 16/ 17   N/A

$$





USA.gov is the U.S. government's official web portal to all federal, state and local government web resources and services.